[[{"header":{"parameterUnit":"m.s-1","parameterCategory":1,"la1":30.2992,"la2":30.254,"lo1":-89.0895,"lo2":-89.0443,"dy":0.0025,"dx":0.0025,"nx":19,"ny":19,"refTime":"2026-04-09T03:00:00:Z","depth":0,"parameterNumber":2,"parameterNumberName":"U-component_of_WINDS"},"data":[0,0,0,-6.7559,-6.7561,-6.7623,-6.7623,-6.7751,-6.7752,0,0,0,0,0,0,0,0,0,0,0,-6.7567,-6.7569,-6.7558,-6.7561,-6.7623,-6.7623,-6.7751,-6.7752,0,0,0,0,0,0,0,0,0,0,0,-6.7567,-6.7569,-6.7571,-6.7561,-6.7623,-6.7623,-6.775,-6.7686,0,0,0,0,0,0,0,0,0,0,-6.7617,-6.7652,-6.7568,-6.7571,-6.7562,-6.7623,-6.7623,-6.7682,-6.769,-6.7742,0,-6.7795,0,-6.7776,-6.7764,-6.7764,0,0,0,-6.754,-6.7646,-6.7638,-6.7571,-6.7563,-6.7623,-6.7589,-6.7686,-6.7695,-6.7753,-6.7796,-6.78,-6.7778,-6.7765,-6.7766,-6.8134,-6.8136,0,0,-6.7537,-6.7593,-6.7632,-6.7645,-6.7637,-6.7588,-6.7592,-6.7691,-6.7742,-6.7797,-6.7802,-6.778,-6.7766,-6.7767,-6.8131,-6.8134,0,0,0,-6.7541,-6.7592,-6.758,-6.7641,-6.7649,-6.759,-6.7594,-6.7738,-6.7729,-6.7803,-6.7782,-6.7767,-6.7769,-6.8128,-6.8132,-6.8321,0,0,0,-6.7538,-6.7594,-6.758,-6.7616,-6.7648,-6.7694,-6.764,-6.7722,-6.7732,-6.7781,-6.7767,-6.7771,-6.8125,-6.813,-6.8309,-6.84,0,0,0,-6.7554,-6.7595,-6.7614,-6.7618,-6.7647,-6.7691,-6.7687,-6.7723,-6.772,-6.7765,-6.7771,-6.8123,-6.8129,-6.8298,-6.8383,-6.8516,0,0,0,-6.7588,-6.7779,-6.7618,-6.7824,-6.7647,-6.7806,-6.7686,-6.7801,-6.7862,-6.7768,-6.8125,-6.8132,-6.8295,-6.8372,-6.8505,-6.8638,-6.8698,0,0,-6.7861,-6.7814,-6.7931,-6.7788,-6.7991,-6.7792,-6.8022,-6.8024,-6.7976,-6.8084,-6.8093,-6.8313,-6.8382,-6.8513,-6.9015,-6.9064,0,0,0,-6.8036,-6.8121,-6.8163,-6.8223,-6.823,-6.8243,-6.8204,-6.8205,-6.8294,-6.8043,-6.8394,-6.8433,-6.8508,-6.8569,-6.861,-6.8672,-6.8162,-6.8161,-6.8161,-6.8504,-6.8434,-6.8623,-6.8562,-6.8623,-6.8581,-6.8625,-6.8619,-6.8529,-6.8614,-6.8645,-6.8958,-6.9032,-6.9063,-6.9128,-6.8709,-6.871,-6.871,-6.8711,-6.8899,-6.9009,-6.8887,-6.9027,-6.8953,-6.907,-6.9039,-6.8972,-6.9072,-6.8928,-6.899,-6.884,-6.9118,-6.9172,-6.8724,-6.8722,-6.872,-6.8719,-6.8718,-6.9199,-6.9239,-6.9238,-6.9321,-6.9393,-6.9323,-6.9426,-6.9353,-6.9286,-6.9347,-6.9375,-6.9372,-6.9361,-6.9366,-6.9367,-6.9368,-6.9369,-6.9369,-6.937,-6.9511,-6.9503,-6.9598,-6.9623,-6.9654,-6.9686,-6.9649,-6.9677,-6.9691,-6.9631,-6.9631,-6.9535,-6.9158,-6.9065,-6.9387,-6.9384,-6.9382,-6.938,-6.9379,-6.994,-6.9832,-6.9978,-7.001,-7.0035,-7.0113,-7.002,-7.0086,-7.0099,-7.0153,-7.0044,-6.9776,-6.9723,-6.969,-6.9613,-7.0057,-7.0057,-7.0057,-7.0057,-7.0194,-7.016,-7.0295,-7.0351,-7.0397,-7.0329,-7.0499,-7.0474,-7.043,-7.0435,-7.036,-7.0252,-7.0221,-7.0186,-7.0142,-7.007,-7.0619,-7.062,-7.062,-7.0455,-7.0423,-7.0581,-7.0537,-7.0552,-7.0568,-7.0727,-7.0797,-7.0725,-7.0642,-7.0438,-7.0414,-7.0238,-7.0184,-7.0097,-7.003,-6.9895,0,0]},{"header":{"parameterUnit":"m.s-1","parameterCategory":1,"la1":30.2992,"la2":30.254,"lo1":-89.0895,"lo2":-89.0443,"dy":0.0025,"dx":0.0025,"nx":19,"ny":19,"refTime":"2026-04-09T03:00:00:Z","depth":0,"parameterNumber":3,"parameterNumberName":"V-component_of_WINDS"},"data":[0,0,0,0.3193,0.3191,0.3103,0.3103,0.2983,0.2982,0,0,0,0,0,0,0,0,0,0,0,0.3216,0.3216,0.3193,0.3191,0.3103,0.3103,0.2983,0.2982,0,0,0,0,0,0,0,0,0,0,0,0.3217,0.3216,0.3215,0.3191,0.3103,0.3103,0.2984,0.3052,0,0,0,0,0,0,0,0,0,0,0.3139,0.3158,0.3216,0.3215,0.319,0.3103,0.3103,0.3056,0.3048,0.3021,0,0.2997,0,0.2988,0.2974,0.2973,0,0,0,0.3192,0.3164,0.3143,0.3215,0.3189,0.3103,0.3143,0.3051,0.3043,0.3011,0.2995,0.2991,0.2986,0.2973,0.2972,0.2815,0.2814,0,0,0.3197,0.3198,0.3149,0.3138,0.3153,0.3146,0.314,0.3046,0.3029,0.2995,0.2988,0.2984,0.2972,0.2971,0.2816,0.2815,0,0,0,0.321,0.3202,0.3183,0.3142,0.3127,0.3143,0.3137,0.3033,0.3027,0.2987,0.2983,0.2972,0.297,0.2817,0.2816,0.2776,0,0,0,0.3213,0.3209,0.3185,0.3185,0.3129,0.3079,0.3126,0.3034,0.3023,0.2983,0.2971,0.2969,0.2818,0.2816,0.2779,0.2756,0,0,0,0.3223,0.3211,0.3197,0.3185,0.3148,0.3081,0.307,0.3032,0.302,0.2973,0.2968,0.2818,0.2816,0.2782,0.276,0.2714,0,0,0,0.3233,0.3162,0.3197,0.3116,0.3149,0.3059,0.307,0.3003,0.2958,0.2971,0.2818,0.2816,0.2783,0.2763,0.2717,0.2673,0.2656,0,0,0.3144,0.3151,0.3104,0.3132,0.3037,0.3072,0.297,0.2927,0.2921,0.2851,0.2847,0.2778,0.2761,0.2714,0.2564,0.255,0,0,0,0.3076,0.3042,0.3016,0.2975,0.2943,0.2912,0.2886,0.2871,0.2811,0.2886,0.275,0.274,0.2713,0.2691,0.268,0.2655,0.2807,0.2807,0.2807,0.2948,0.2947,0.2868,0.2857,0.2817,0.2792,0.2759,0.2734,0.2742,0.2711,0.2688,0.2597,0.2572,0.2564,0.2538,0.2668,0.2667,0.2667,0.2667,0.2815,0.2765,0.2783,0.2712,0.2711,0.2651,0.2625,0.2634,0.2577,0.2613,0.2589,0.2625,0.2549,0.2526,0.2664,0.2665,0.2665,0.2665,0.2666,0.2728,0.2704,0.2689,0.2631,0.2586,0.2578,0.2523,0.2525,0.2525,0.2502,0.2478,0.2478,0.2477,0.2491,0.2491,0.2491,0.249,0.249,0.249,0.2642,0.2627,0.2581,0.2544,0.2519,0.2486,0.2463,0.2437,0.2409,0.2414,0.2414,0.2424,0.2543,0.2571,0.2485,0.2486,0.2486,0.2487,0.2487,0.2501,0.2535,0.2464,0.2439,0.2396,0.2351,0.2357,0.2305,0.2285,0.2258,0.2276,0.2364,0.237,0.238,0.2402,0.2278,0.2278,0.2278,0.2278,0.2425,0.2431,0.236,0.232,0.2282,0.228,0.22,0.2183,0.2169,0.2156,0.2176,0.2207,0.2217,0.2217,0.223,0.2251,0.2091,0.2091,0.2091,0.2338,0.234,0.2271,0.2262,0.2229,0.2201,0.2125,0.2077,0.2069,0.2083,0.2145,0.2153,0.2205,0.2222,0.2232,0.2252,0.2291,0,0]}]]